Location: Camaret
(48.2753°N, 4.5961°W)
Time: 04:39:26
(UTC+00:00)

FengYun 1-2 T - Pass Details

Date: 29 October 2020
Orbit: 846 x 882 km, 98.7° (Epoch: 01 December)

Event Time Altitude Azimuth Distance (km) Brightness Sun altitude
Rises 17:50:42 0° 161° (SSE) 3,469 7.3 -8.4°
Reaches altitude 10° 17:53:05 10° 160° (SSE) 2,532 6.6 -8.8°
Maximum altitude 17:58:44 84° 73° (ENE) 889 4.3 -9.7°
Drops below altitude 10° 18:04:23 10° 347° (NNW) 2,533 6.7 -10.6°
Sets 18:06:46 0° 347° (NNW) 3,470 7.5 -11.0°
